TITAN 3C TRANSTAGE DEB, 34164

Orbit data source: Space-Track

TITAN 3C TRANSTAGE DEB, 34164 is space debris in HEO originally from a launch on Tue, 21 Dec 1965 UTC launched from the Air Force Eastern Test Range (AFETR). Debris objects in space refer to the collection of defunct objects orbiting the Earth. Examples of debris include non-operational satellites, rocket bodies, and fragments generated from explosions, collisions, or faulty payload assembly.

Loading next visibility...
Identifier
34164, 1965-108CX
Orbit
HEO
Country
Flag of USUS
Related business
Manufacturer
Unknown
Mission
Spacecraft
Bus & Motor
Unknown
Mass
Unknown
Launch date (UTC)
1965-12-21 (60 years ago)
Launch vehicle
Unknown
Launch site
Air Force Eastern Test Range (AFETR)
Object type
Payload
Rocket body
Debris
Shape & HBR
Unknown shape, 1.1 m
Radar Cross Section
Medium (>0.1 m² and <1 m²)

Expand to show TLE details & history
Last TLE update: 2 months ago

TLE from 2 months ago
0 TITAN 3C TRANSTAGE DEB
1 34164U 65108CX  26098.29698455  .00000163  00000-0  30658-2 0  9995
2 34164  25.5768 297.3269 6970535 201.0746 356.7557  2.47833733 90070
Epoch: 2026-04-08T07:07Z
TLE epoch observation values (Epoch: 2026-04-08T07:07:39.465Z)
Latitude
1.84482°
Longitude
169.98082°
Altitude
907.84 km
Speed
9.598 km/s
True Right ascension
07h 33m 49s
True Declination
1° 50' 02"
Sunlit
Object was in daylight at epoch
Visualization orbit readout
Latitude
Unknown
Longitude
Unknown
Altitude
Unknown
Speed
Unknown
Apparent Right ascension
Unknown
Apparent Declination
Unknown
Sunlit
N/A
Visualization observer readout
Local Sidereal Time
16:03:25
Azimuth
Unknown
Elevation
Unknown
Doppler factor
Unknown
Orbital elements
Apogee altitude
32,771.49 km
Perigee altitude
610.589 km
Semi-major axis
23,069.177 km
Eccentricity
0.69705
Inclination
25.5768°
RAAN
297.3269°
Arg. of periapsis
201.0746°
True anomaly
335.29811°
Mean anomaly
356.7557°
Eccentric anomaly
349.42862°
Mean motion
0.61943 °/min
Orbital period
581.18 mins
BSTAR
0.0030658
Loading maneuver chart data...
Computing Atmospheric mass density...

Documentation

Showing up to 5 results
|